CZ-6A DEB, 54586

Orbit data source: Space-Track

CZ-6A DEB, 54586 is space debris in SSO originally from a launch on Fri, 11 Nov 2022 UTC launched from the Taiyaun Space Center, China (TSC). Debris objects in space refer to the collection of defunct objects orbiting the Earth. Examples of debris include non-operational satellites, rocket bodies, and fragments generated from explosions, collisions, or faulty payload assembly.

Loading next visibility...
Identifier
54586, 2022-151MN
Orbit
SSO
Country
Flag of CNCN / PRC
Related business
Manufacturer
SAST
Mission
Spacecraft
Bus & Motor
Unknown
Mass
Unknown
Launch date (UTC)
2022-11-11 (4 years ago)
Launch vehicle
Unknown
Launch site
Taiyaun Space Center, China (TSC)
Object type
Payload
Rocket body
Debris
Shape & HBR
Unknown shape, 0.1 m
Radar Cross Section
Medium (>0.1 m² and <1 m²)

Expand to show TLE details & history
Last TLE update: 20 hours ago

TLE from 20 hours ago
0 CZ-6A DEB
1 54586U 22151MN  26238.01064597  .00000975  00000-0  42219-3 0  9994
2 54586  98.7562 258.3248 0063554 134.2005 226.4420 14.25525214195867
Epoch: 2026-08-26T00:15Z
TLE epoch observation values (Epoch: 2026-08-26T00:15:19.811Z)
Latitude
-0.00006°
Longitude
-79.77751°
Altitude
841.272 km
Speed
7.416 km/s
True Right ascension
17h 13m 17s
True Declination
0° 00' 00"
Sunlit
Object was in daylight at epoch
Visualization orbit readout
Latitude
Unknown
Longitude
Unknown
Altitude
Unknown
Speed
Unknown
Apparent Right ascension
Unknown
Apparent Declination
Unknown
Sunlit
N/A
Visualization observer readout
Local Sidereal Time
11:11:45
Azimuth
Unknown
Elevation
Unknown
Doppler factor
Unknown
Orbital elements
Apogee altitude
849.525 km
Perigee altitude
758.236 km
Semi-major axis
7,182.018 km
Eccentricity
0.00636
Inclination
98.7562°
RAAN
258.3248°
Arg. of periapsis
134.2005°
True anomaly
225.91712°
Mean anomaly
226.442°
Eccentric anomaly
226.17927°
Mean motion
3.56594 °/min
Orbital period
100.96 mins
BSTAR
0.00042219
Loading maneuver chart data...
Computing Atmospheric mass density...
Loading historical data...
Loading historical data...
Loading historical data...
Loading historical data...
Loading historical data...
Loading historical data...
Loading historical data...

Documentation

Showing up to 5 results
|